Wetbulb
71.41 73.52 75.20 75.28 75.43 75.99 75.39 75.35 75.35 75.40 75.20 75.10 74.80 74.78 74.60 74.55 74.57 74.82 75.00 75.07 75.12 74.32 74.07 73.60 73.12 72.92 73.00 73.20 73.12 73.04 72.94 72.79 73.05 73.81 73.87 72.02 71.79 72.16 73.45 73.79 72.87 72.53 74.20
72.55 73.65 75.55 75.63 75.33 75.93 75.55 75.40 75.25 75.03 74.88 74.65 74.50 74.40 74.32 74.22 74.27 74.12 73.99 73.94 74.08 73.38 72.92 72.55 72.28 72.09 71.95 71.91 71.71 71.72 71.60 71.69 71.72 71.78 72.08 72.60 72.28 71.61 72.86 73.38 73.88 71.82 73.38
72.50 73.35 74.02 75.55 75.52 75.42 75.23 75.03 74.85 74.78 74.55 74.25 74.03 74.10 74.15 73.95 73.82 73.67 73.85 73.77 73.44 73.22 72.83 72.66 72.49 72.36 72.36 72.14 72.26 72.22 72.28 72.13 72.41 72.41 72.82 69.21 68.27 72.64 72.31 73.48 74.14 73.83 73.09
72.28 72.46 73.38 74.97 74.75 74.82 74.50 74.30 74.23 74.10 74.05 74.23 74.13 74.02 73.72 73.73 73.63 73.70 73.43 73.48 73.59 73.86 73.89 73.70 73.53 73.64 73.53 73.36 72.97 72.72 72.55 72.52 72.71 72.61 68.75 68.13 68.14 70.76 74.11 73.51 74.47 73.70 73.85
71.51 72.34 73.04 75.05 74.75 74.42 74.42 74.83 74.95 74.85 74.70 74.18 73.67 73.47 73.10 72.60 72.21 72.14 72.16 72.15 72.29 72.56 72.60 72.97 73.36 73.59 73.92 74.02 73.93 73.73 73.21 72.88 72.79 71.70 66.67 66.57 66.06 69.47 72.13 75.30 74.20 74.05 73.52
71.14 71.51 74.47 74.98 74.85 74.78 74.75 74.40 73.83 73.65 73.98 73.95 73.60 72.90 72.22 71.97 71.86 72.13 72.10 72.28 72.56 72.81 73.04 72.97 73.08 73.09 73.17 73.10 73.20 73.45 73.43 73.15 72.91 68.44 68.19 67.65 69.38 71.77 73.60 75.53 75.10 74.38 74.45
70.59 72.00 72.78 74.53 74.33 73.94 73.76 74.10 74.53 74.38 72.95 72.62 72.77 72.86 72.67 72.78 73.10 73.03 72.75 72.90 73.35 73.51 73.05 73.04 73.25 73.51 73.68 73.78 73.93 73.85 73.63 73.30 70.98 69.06 69.28 68.69 71.07 74.22 75.60 75.35 74.91 74.32 74.50
71.72 72.03 72.89 74.88 74.90 75.10 74.78 74.03 73.08 73.38 73.48 72.58 72.86 74.13 73.20 73.70 73.41 73.75 74.13 73.85 73.73 73.32 72.46 72.11 72.12 72.58 73.13 72.94 73.01 73.36 73.98 74.23 72.04 70.07 70.24 69.88 72.09 74.90 74.66 75.83 74.79 74.25 73.98
72.19 71.42 71.78 73.25 73.78 74.33 73.70 73.46 73.48 73.85 73.55 71.75 71.48 71.72 71.35 71.65 71.08 72.34 72.22 73.56 73.75 74.05 73.90 73.56 73.48 73.38 73.35 73.08 72.98 73.58 73.08 73.28 71.29 69.85 70.68 70.11 72.87 74.47 73.94 74.09 73.74 73.12 73.57
70.28 71.15 70.50 70.78 71.33 70.31 70.90 73.51 73.75 72.36 70.83 70.03 69.93 69.36 68.09 67.92 68.47 68.90 69.05 69.95 70.79 71.16 70.21 69.99 70.30 69.87 70.40 72.07 72.14 72.61 73.10 73.44 70.22 69.52 69.42 68.55 72.51 71.86 72.44 73.02 72.74 72.93 73.23
68.96 68.55 68.26 68.57 67.74 68.93 71.20 72.44 72.09 69.97 68.39 66.98 65.49 66.59 63.11 61.52 62.04 62.46 65.73 67.79 67.10 66.60 66.95 66.85 67.24 67.35 66.11 65.77 66.79 67.50 67.15 67.10 68.73 68.60 68.15 70.49 72.07 71.91 71.87 71.62 71.30 71.64 72.43
65.60 66.14 65.89 66.34 67.54 68.78 70.57 68.16 65.39 64.76 62.84 61.91 60.78 60.02 59.55 58.01 59.69 60.86 62.07 64.47 63.70 64.27 63.88 64.24 64.90 64.75 62.69 59.87 59.54 62.21 59.95 60.60 67.10 68.17 67.75 70.84 71.62 72.32 72.06 71.21 70.78 71.14 70.89
65.17 65.02 64.49 63.86 64.59 64.16 63.35 63.50 63.94 62.77 61.00 59.57 58.51 57.57 56.22 56.68 55.92 56.82 57.18 58.09 57.66 60.39 57.74 58.76 59.19 59.37 57.84 57.96 57.46 57.39 57.75 57.93 60.67 66.11 69.39 71.68 72.71 72.65 71.82 71.09 71.33 71.23 70.20
64.27 64.05 63.57 62.76 61.86 61.21 61.19 60.73 61.20 61.43 59.40 57.23 56.36 56.36 54.98 54.67 53.77 54.35 55.59 56.16 56.15 55.91 55.59 56.50 57.01 57.15 56.77 57.20 56.72 56.10 56.42 56.71 57.70 60.98 63.19 68.61 71.41 72.33 70.98 71.15 70.79 69.53 69.37
62.59 62.46 62.20 62.00 60.93 60.68 59.94 59.33 59.30 59.10 57.10 55.27 54.77 55.29 54.72 53.35 52.37 53.05 53.84 54.72 54.95 54.95 54.62 55.36 55.60 55.42 55.09 55.84 56.14 56.24 56.22 55.95 57.04 58.19 58.59 64.65 68.48 71.77 71.20 70.85 69.96 69.17 68.31
61.76 61.22 61.30 60.83 59.95 58.80 56.64 56.21 56.24 56.34 55.02 53.88 53.76 54.44 54.67 53.52 52.39 52.42 52.57 52.89 54.15 54.56 54.48 54.53 53.80 53.47 53.43 54.21 55.07 55.88 55.78 55.26 55.41 55.84 56.06 58.59 66.52 69.06 71.23 71.02 69.64 68.77 67.04
60.72 61.02 60.07 56.50 56.19 57.44 57.13 55.91 54.21 54.71 54.26 53.10 53.45 54.06 54.65 53.53 52.05 51.55 51.23 51.05 52.30 53.70 54.34 53.66 52.91 52.77 52.73 53.78 52.92 54.25 54.40 54.10 54.83 58.65 62.19 62.89 63.89 67.34 69.58 70.24 68.93 67.45 67.20
55.48 55.36 55.40 56.51 54.08 53.09 52.94 54.82 54.62 53.66 52.78 52.50 52.70 52.90 53.70 52.98 51.44 50.35 50.44 51.10 52.03 52.96 53.47 53.17 51.64 51.36 51.65 51.49 51.54 51.18 51.38 53.22 58.80 59.52 60.92 62.26 62.45 63.24 66.74 67.77 67.15 67.10 66.19
54.42 54.25 53.60 53.70 53.02 52.52 52.40 52.40 52.79 52.62 52.33 51.72 51.68 51.27 51.90 52.98 52.56 49.84 50.80 51.52 52.27 52.40 52.65 52.64 51.34 50.83 50.50 51.24 52.33 52.12 53.74 55.90 55.90 57.38 57.74 60.25 61.64 61.90 62.51 66.75 66.34 66.11 66.28
54.16 53.58 52.81 52.73 52.71 52.08 51.46 52.15 52.40 51.54 50.64 50.78 50.42 50.72 51.12 51.79 52.64 50.82 51.36 52.10 52.42 53.41 52.37 51.54 50.49 53.53 51.03 50.16 52.39 53.54 54.38 54.17 53.83 54.79 57.15 59.02 59.94 60.42 60.17 60.13 60.09 61.88 63.95
53.47 52.63 52.18 51.87 51.66 51.63 51.17 50.41 49.81 48.69 48.97 49.00 49.85 51.00 50.60 51.29 51.85 51.08 52.30 52.50 52.35 54.88 54.05 53.13 50.03 51.91 49.47 50.57 52.20 51.93 53.28 53.71 51.78 50.81 51.42 54.45 57.26 59.33 60.27 59.65 58.76 58.16 59.40
52.85 52.12 51.68 51.26 50.45 50.12 49.77 49.38 50.41 48.23 47.53 48.10 48.19 48.99 50.35 50.85 51.31 52.47 53.23 54.01 54.33 54.27 53.18 51.16 47.37 50.58 50.12 50.50 48.99 49.73 48.01 49.62 51.07 49.48 49.34 49.08 51.84 56.79 57.36 57.09 56.01 55.61 55.25
53.35 52.12 51.76 50.80 49.45 48.71 48.28 47.87 47.47 46.69 45.69 44.93 45.21 45.89 47.80 50.65 51.54 51.93 53.16 53.35 53.06 52.87 50.70 48.04 46.59 45.40 46.66 46.78 48.43 48.95 46.54 44.48 45.60 48.73 47.01 47.58 51.03 55.67 55.93 56.45 56.66 54.15 52.85
53.35 53.20 52.28 50.47 48.64 48.29 47.30 45.84 44.49 43.16 42.35 43.27 44.06 45.04 47.21 49.64 50.78 52.16 51.12 49.95 48.76 48.80 47.48 47.51 46.77 44.64 45.15 42.98 43.71 46.78 46.54 45.81 42.75 40.20 43.41 44.34 47.74 52.60 52.10 53.04 54.07 54.20 51.68
53.56 51.60 50.75 49.68 47.87 47.25 46.64 45.14 44.14 43.12 43.48 44.54 44.91 45.43 45.91 47.21 49.38 50.47 48.93 47.25 46.89 45.91 46.11 46.44 45.06 43.72 43.49 42.31 41.79 41.59 41.74 41.72 40.47 38.37 36.80 38.92 41.97 44.62 54.03 52.86 52.23 51.73 51.92
52.44 51.49 50.34 48.09 47.12 47.10 46.25 45.13 44.58 43.97 43.49 44.18 43.83 44.14 44.77 45.18 46.64 49.08 48.47 45.91 46.41 46.09 45.01 44.68 45.60 45.06 42.98 42.80 41.78 41.53 40.52 39.77 39.35 37.73 36.50 36.60 36.78 40.59 47.24 50.28 51.74 49.46 48.78
MSLP
1013.85 1013.56 1013.31 1013.19 1013.20 1013.20 1013.23 1013.34 1013.57 1013.72 1013.90 1014.09 1014.17 1014.19 1014.14 1014.03 1013.92 1013.79 1013.76 1013.74 1013.65 1013.56 1013.49 1013.45 1013.45 1013.47 1013.46 1013.41 1013.43 1013.47 1013.51 1013.48 1013.44 1013.35 1013.35 1013.41 1013.42 1013.46 1013.43 1013.42 1013.48 1013.55 1013.50
1013.76 1013.74 1013.60 1013.43 1013.32 1013.43 1013.57 1013.56 1013.82 1014.01 1014.17 1014.31 1014.41 1014.42 1014.36 1014.22 1014.09 1013.97 1013.89 1013.86 1013.85 1013.77 1013.67 1013.61 1013.59 1013.62 1013.62 1013.61 1013.57 1013.59 1013.62 1013.67 1013.61 1013.51 1013.41 1013.45 1013.57 1013.50 1013.45 1013.38 1013.33 1013.41 1013.40
1013.85 1013.84 1013.95 1013.80 1013.66 1013.64 1013.73 1014.05 1014.08 1014.16 1014.38 1014.50 1014.59 1014.67 1014.60 1014.51 1014.39 1014.28 1014.14 1014.04 1013.93 1013.87 1013.80 1013.70 1013.69 1013.71 1013.70 1013.61 1013.63 1013.59 1013.56 1013.57 1013.57 1013.55 1013.49 1013.57 1013.49 1013.36 1013.30 1013.28 1013.33 1013.41 1013.40
1013.92 1013.99 1013.98 1014.10 1014.12 1013.97 1014.09 1014.13 1014.25 1014.38 1014.57 1014.72 1014.76 1014.80 1014.78 1014.65 1014.56 1014.38 1014.26 1014.16 1013.97 1013.87 1013.82 1013.73 1013.65 1013.70 1013.69 1013.63 1013.59 1013.55 1013.50 1013.49 1013.49 1013.43 1013.55 1013.57 1013.37 1013.05 1012.99 1013.12 1013.23 1013.46 1013.54
1014.05 1014.08 1013.91 1014.00 1014.25 1014.31 1014.39 1014.41 1014.50 1014.61 1014.85 1014.90 1014.82 1014.83 1014.89 1014.79 1014.63 1014.39 1014.26 1014.12 1013.98 1013.88 1013.74 1013.74 1013.73 1013.66 1013.65 1013.55 1013.46 1013.45 1013.32 1013.28 1013.30 1013.44 1013.52 1013.34 1013.18 1012.81 1012.63 1012.75 1013.05 1013.25 1013.51
1014.24 1014.17 1014.08 1014.27 1014.41 1014.50 1014.57 1014.72 1014.73 1014.88 1014.95 1015.02 1014.95 1014.87 1014.89 1014.84 1014.60 1014.45 1014.27 1014.20 1014.09 1013.91 1013.91 1013.70 1013.67 1013.63 1013.59 1013.51 1013.34 1013.22 1013.17 1013.08 1012.96 1013.19 1013.30 1013.06 1012.64 1012.30 1012.14 1012.02 1012.52 1012.91 1013.27
1014.61 1014.46 1014.33 1014.50 1014.69 1014.77 1014.85 1014.79 1014.83 1014.96 1015.09 1015.05 1015.07 1014.93 1014.97 1014.88 1014.69 1014.54 1014.43 1014.25 1014.15 1013.96 1013.76 1013.74 1013.65 1013.53 1013.46 1013.38 1013.21 1013.08 1013.04 1012.88 1012.81 1012.88 1012.91 1012.83 1012.43 1011.76 1011.35 1011.72 1012.19 1012.62 1012.94
1014.61 1014.65 1014.64 1014.76 1014.79 1014.84 1014.99 1015.04 1015.12 1015.19 1015.27 1015.32 1015.19 1014.97 1014.94 1014.82 1014.62 1014.60 1014.47 1014.36 1014.21 1013.97 1013.75 1013.72 1013.62 1013.55 1013.45 1013.26 1013.10 1012.91 1012.73 1012.64 1012.55 1012.63 1012.61 1012.49 1012.26 1011.73 1011.20 1011.37 1012.01 1012.37 1012.72
1014.51 1014.76 1014.98 1014.96 1014.92 1014.99 1015.10 1015.24 1015.37 1015.49 1015.58 1015.52 1015.42 1015.28 1015.24 1015.13 1014.93 1014.85 1014.68 1014.37 1014.26 1013.95 1013.81 1013.61 1013.55 1013.40 1013.24 1013.14 1013.01 1012.79 1012.58 1012.36 1012.27 1012.45 1012.33 1012.31 1012.16 1011.85 1011.66 1011.80 1012.11 1012.38 1012.55
1015.11 1015.06 1015.04 1015.25 1015.29 1015.49 1015.55 1015.56 1015.68 1015.82 1015.97 1015.98 1015.83 1015.80 1015.69 1015.52 1015.33 1015.16 1015.01 1014.75 1014.45 1014.28 1014.07 1013.81 1013.68 1013.53 1013.29 1013.02 1012.92 1012.62 1012.23 1011.98 1012.02 1012.18 1012.26 1012.17 1012.10 1011.97 1011.84 1011.96 1011.98 1012.17 1012.30
1015.42 1015.57 1015.56 1015.47 1015.61 1015.72 1015.80 1015.85 1016.00 1016.21 1016.37 1016.40 1016.37 1016.29 1016.28 1016.20 1015.97 1015.78 1015.49 1015.19 1014.96 1014.74 1014.40 1014.15 1013.91 1013.74 1013.54 1013.30 1013.10 1012.79 1012.47 1012.19 1012.07 1012.12 1012.13 1011.98 1012.08 1012.12 1012.14 1012.05 1012.05 1012.15 1012.33
1015.87 1015.96 1015.94 1015.74 1015.72 1015.88 1015.92 1016.28 1016.54 1016.79 1016.97 1017.03 1016.95 1016.88 1016.78 1016.71 1016.41 1016.22 1015.98 1015.69 1015.42 1015.13 1014.83 1014.56 1014.28 1013.99 1013.78 1013.59 1013.36 1013.04 1012.78 1012.49 1012.28 1012.10 1012.05 1011.96 1011.95 1011.95 1012.10 1012.24 1012.10 1012.17 1012.34
1016.14 1016.49 1016.27 1016.15 1015.97 1016.22 1016.52 1016.75 1017.01 1017.21 1017.26 1017.27 1017.26 1017.27 1017.20 1017.02 1016.87 1016.67 1016.45 1016.21 1015.93 1015.54 1015.28 1014.92 1014.64 1014.42 1014.20 1013.84 1013.46 1013.20 1012.97 1012.66 1012.47 1012.11 1011.80 1011.56 1011.56 1011.56 1011.84 1012.24 1012.33 1012.12 1012.38
1016.30 1016.47 1016.49 1016.31 1016.41 1016.68 1016.89 1017.17 1017.26 1017.42 1017.54 1017.71 1017.72 1017.58 1017.48 1017.41 1017.31 1017.18 1016.92 1016.67 1016.34 1016.03 1015.64 1015.30 1015.01 1014.69 1014.40 1014.02 1013.66 1013.31 1013.06 1012.77 1012.46 1012.18 1011.83 1011.42 1011.31 1011.38 1011.68 1011.86 1012.19 1012.38 1012.52
1016.55 1016.92 1016.90 1016.68 1016.87 1017.09 1017.38 1017.59 1017.67 1017.86 1017.95 1018.00 1017.91 1017.87 1017.74 1017.78 1017.81 1017.63 1017.44 1017.09 1016.77 1016.37 1016.05 1015.68 1015.33 1015.02 1014.63 1014.17 1013.69 1013.35 1013.07 1012.85 1012.47 1012.11 1011.71 1011.25 1011.03 1011.05 1011.30 1011.62 1012.01 1012.17 1012.41
1017.05 1017.22 1017.27 1017.36 1017.45 1017.58 1017.86 1017.94 1018.23 1018.40 1018.48 1018.43 1018.32 1018.21 1018.08 1018.03 1018.01 1017.93 1017.73 1017.47 1017.11 1016.77 1016.32 1015.98 1015.69 1015.28 1014.84 1014.32 1013.85 1013.40 1013.16 1012.86 1012.51 1012.00 1011.63 1011.42 1011.16 1010.97 1011.02 1011.42 1011.69 1012.02 1012.30
1017.46 1017.51 1017.61 1017.61 1017.79 1018.06 1018.19 1018.31 1018.57 1018.56 1018.69 1018.81 1018.80 1018.55 1018.39 1018.26 1018.22 1018.16 1018.04 1017.77 1017.45 1016.97 1016.49 1016.07 1015.67 1015.22 1014.83 1014.37 1013.96 1013.51 1013.10 1012.83 1012.49 1012.11 1011.85 1011.62 1011.29 1010.89 1010.83 1011.35 1011.71 1012.30 1012.55
1017.72 1018.02 1018.22 1018.30 1018.28 1018.23 1018.25 1018.46 1018.64 1019.03 1019.25 1019.29 1019.18 1019.01 1018.80 1018.61 1018.49 1018.39 1018.25 1017.96 1017.57 1017.13 1016.71 1016.38 1016.06 1015.57 1015.14 1014.75 1014.15 1013.51 1013.17 1012.93 1012.57 1012.34 1012.16 1011.95 1011.69 1011.49 1011.43 1011.82 1012.24 1012.47 1012.40
1017.86 1018.23 1018.57 1018.67 1018.82 1018.78 1018.68 1018.65 1018.92 1019.34 1019.60 1019.79 1019.72 1019.55 1019.26 1018.96 1018.76 1018.70 1018.53 1018.18 1017.73 1017.39 1017.07 1016.73 1016.27 1016.00 1015.66 1015.04 1014.38 1013.84 1013.51 1013.34 1013.17 1012.83 1012.74 1012.59 1012.43 1012.28 1012.30 1012.51 1012.74 1012.84 1012.94
1018.02 1018.30 1018.56 1018.89 1019.10 1019.37 1019.32 1019.26 1019.41 1019.84 1020.18 1020.17 1020.19 1019.98 1019.65 1019.32 1019.05 1018.93 1018.70 1018.35 1017.99 1017.64 1017.37 1016.97 1016.74 1016.28 1015.99 1015.60 1014.91 1014.22 1013.91 1013.89 1013.69 1013.65 1013.53 1013.27 1013.20 1013.13 1013.17 1013.30 1013.59 1013.56 1013.59
1018.19 1018.45 1018.81 1019.12 1019.41 1019.42 1019.73 1020.01 1020.23 1020.76 1020.83 1020.71 1020.52 1020.25 1019.90 1019.62 1019.36 1019.17 1018.84 1018.58 1018.28 1018.02 1017.87 1017.46 1017.03 1016.76 1016.32 1015.59 1015.07 1014.73 1014.42 1014.42 1014.41 1014.45 1014.30 1014.27 1014.13 1014.03 1013.89 1013.85 1014.15 1014.29 1014.31
1018.75 1018.60 1019.14 1019.55 1019.65 1019.89 1020.08 1020.36 1020.46 1020.92 1021.06 1021.05 1020.92 1020.58 1020.25 1019.92 1019.59 1019.28 1019.01 1018.82 1018.53 1018.37 1018.20 1017.95 1017.55 1017.23 1016.85 1016.34 1016.05 1015.68 1015.45 1015.17 1015.25 1015.22 1015.21 1014.97 1014.82 1014.68 1014.80 1014.68 1014.62 1015.14 1015.12
1018.40 1018.66 1019.19 1019.66 1019.93 1020.19 1020.53 1020.70 1020.86 1021.18 1021.39 1021.56 1021.37 1021.09 1020.71 1020.21 1019.85 1019.62 1019.32 1019.11 1018.91 1018.89 1018.92 1018.67 1018.23 1018.00 1017.77 1017.14 1016.62 1016.59 1016.67 1016.83 1016.63 1016.26 1016.09 1015.95 1015.72 1015.65 1015.61 1015.32 1015.41 1015.48 1015.52
1018.59 1018.77 1019.27 1019.81 1020.11 1020.50 1020.82 1020.96 1021.23 1021.70 1022.01 1022.08 1021.78 1021.50 1020.98 1020.45 1020.10 1019.77 1019.62 1019.57 1019.54 1019.46 1019.40 1019.18 1018.83 1018.62 1018.24 1018.46 1017.83 1017.79 1017.82 1017.84 1017.93 1017.70 1017.21 1016.87 1016.74 1016.50 1016.37 1016.06 1015.96 1015.94 1015.98
1018.55 1019.16 1019.50 1020.00 1020.32 1020.72 1020.94 1021.05 1021.52 1022.01 1022.17 1022.03 1021.87 1021.54 1021.20 1020.75 1020.41 1020.17 1020.13 1019.98 1020.01 1019.93 1019.86 1019.65 1019.30 1019.16 1019.11 1019.16 1018.99 1018.74 1018.55 1018.66 1018.92 1019.17 1019.05 1018.52 1017.63 1017.38 1017.05 1016.79 1016.45 1016.42 1016.39
1018.76 1019.29 1019.64 1020.11 1020.55 1020.67 1020.97 1021.25 1021.62 1022.02 1022.18 1022.19 1022.11 1021.99 1021.55 1021.11 1021.02 1020.52 1020.36 1020.32 1020.17 1020.15 1020.14 1020.03 1019.73 1019.56 1019.70 1019.68 1019.63 1019.61 1019.74 1020.00 1020.17 1020.10 1020.08 1019.68 1019.21 1018.26 1017.60 1017.20 1017.03 1016.88 1016.78
Wind_Speed
1 4 9 10 10 13 13 14 14 13 13 12 12 12 11 11 10 10 10 9 8 8 8 8 7 7 6 6 6 6 6 6 6 5 3 3 5 5 6 6 7 4 6
6 4 9 10 11 11 13 14 13 12 11 11 10 9 8 8 8 8 8 8 7 7 7 7 6 6 6 6 5 5 5 6 5 5 5 4 1 6 8 6 12 8 11
5 5 5 11 12 13 13 12 12 12 10 9 8 7 6 6 7 7 7 6 5 5 4 4 4 4 4 4 5 5 5 5 5 5 6 3 3 7 9 9 10 12 12
5 4 5 11 12 13 13 12 11 10 9 7 6 6 5 5 5 5 5 4 4 4 4 4 4 4 5 5 4 4 5 6 6 6 3 3 5 7 10 11 11 11 11
5 5 7 13 12 12 11 10 9 9 7 6 5 4 3 3 3 3 3 3 4 4 4 5 6 6 7 7 7 7 6 6 7 5 3 4 4 8 12 13 12 12 11
6 5 9 11 11 11 11 10 9 8 7 6 5 3 2 2 3 3 4 5 6 7 8 8 8 8 8 9 9 9 9 8 7 2 4 5 6 10 11 15 16 14 12
5 4 6 11 9 9 9 9 8 8 7 6 6 5 4 4 5 5 6 6 7 8 8 9 9 9 9 9 9 10 10 9 5 2 3 4 6 10 11 14 17 14 13
6 5 5 9 9 8 8 7 6 6 8 9 11 13 11 9 6 7 8 8 8 9 9 9 9 9 10 10 10 10 10 10 6 4 4 4 8 7 6 15 16 13 12
5 5 4 4 6 8 7 6 6 7 8 11 13 13 14 13 16 16 16 11 11 11 11 10 10 10 10 11 11 11 12 10 5 3 5 3 6 2 8 8 7 8 9
5 4 4 3 3 3 3 7 7 11 12 13 14 15 16 16 16 16 16 17 15 15 14 15 14 13 14 12 11 12 12 11 4 4 3 3 5 1 4 6 7 8 9
5 3 2 2 3 3 4 5 9 12 14 13 12 14 10 6 7 10 15 16 16 17 15 15 14 14 14 13 13 14 13 5 3 3 3 9 10 7 7 6 6 5 6
5 5 4 3 3 2 5 6 6 7 5 5 5 7 5 6 7 10 12 16 16 17 16 16 15 14 11 4 4 8 4 6 4 3 3 10 11 12 9 8 6 5 2
5 4 5 5 7 6 5 4 3 3 3 4 6 5 5 5 4 5 4 5 5 12 6 8 6 5 6 5 4 4 5 5 3 3 5 12 14 12 8 8 8 6 4
7 5 5 6 7 6 4 4 4 3 3 3 4 6 5 4 6 6 5 5 5 5 6 5 3 5 6 5 5 5 5 4 3 3 4 7 11 12 7 10 7 4 2
7 5 6 6 6 5 5 4 4 4 4 4 4 5 4 5 5 4 5 5 5 5 4 4 4 5 5 6 5 5 5 6 6 3 3 11 8 9 10 9 6 6 4
6 6 5 7 6 6 5 5 4 4 3 4 4 4 6 4 4 5 5 5 6 5 4 4 4 4 4 4 5 5 5 5 5 6 4 4 10 9 12 10 8 5 3
5 6 7 7 6 5 4 5 4 3 4 4 4 6 6 6 6 5 4 4 4 5 6 5 5 4 4 5 5 5 4 5 5 4 4 3 4 7 7 6 5 3 4
7 8 7 7 6 7 7 5 4 5 4 4 4 5 6 6 6 5 4 5 5 4 4 4 4 4 5 4 4 5 4 3 4 5 5 5 4 5 10 13 11 9 5
8 8 8 7 7 7 7 6 7 7 6 4 4 4 6 5 6 5 4 4 5 4 4 4 3 2 4 6 5 5 4 6 6 6 8 8 8 7 5 16 14 13 14
8 8 8 6 6 5 5 5 6 6 5 4 4 4 6 5 6 5 4 5 5 3 5 6 3 4 2 4 3 5 7 7 8 7 8 6 6 7 7 8 6 7 16
7 8 7 7 6 5 4 4 4 3 2 3 4 5 6 5 5 5 4 5 5 5 5 6 4 4 4 7 2 3 3 8 12 10 8 5 6 5 5 6 4 4 6
5 8 8 7 7 5 3 2 3 3 2 1 2 4 5 5 6 5 5 4 5 4 7 8 6 3 3 8 3 1 4 4 4 8 8 8 7 5 5 5 7 6 4
8 8 8 7 7 5 5 3 4 3 3 4 3 3 4 5 6 6 6 5 5 5 5 4 6 7 5 4 12 4 4 3 3 4 8 8 9 6 5 5 4 5 5
7 7 7 7 7 6 5 5 5 3 2 1 2 2 4 6 5 6 6 6 6 4 6 4 5 5 6 7 4 6 6 3 3 4 4 5 7 6 5 4 4 4 5
8 7 6 7 7 6 6 7 5 4 1 1 2 4 5 4 6 5 6 5 6 4 4 6 6 7 4 4 4 3 4 4 5 4 3 5 4 4 4 4 3 4 6
6 7 7 8 6 7 6 6 6 6 3 3 4 4 4 3 4 5 5 4 5 5 5 3 4 7 5 5 4 5 4 3 2 3 3 3 2 4 3 4 5 4 4
Wind_Direction
164 138 121 107 102 103 94 89 84 80 77 72 69 66 66 66 66 67 67 72 71 69 68 68 63 58 53 53 51 45 43 41 35 32 57 130 149 156 162 161 155 152 147
143 137 125 118 114 105 101 96 95 91 87 82 79 78 77 75 72 69 67 64 60 58 55 53 53 48 42 33 33 29 21 12 3 354 348 360 184 183 189 207 177 173 164
131 130 120 118 111 104 103 104 101 102 104 102 96 89 81 69 61 53 48 48 50 51 49 45 31 19 12 12 3 0 354 349 343 346 350 3 309 226 208 198 186 183 172
134 139 134 124 121 121 119 118 115 114 113 109 100 87 72 61 48 44 31 20 17 11 1 351 346 335 327 326 329 330 326 324 324 331 10 325 296 279 231 209 198 193 191
149 164 149 134 131 122 120 121 118 113 106 99 91 74 50 34 15 7 348 329 324 326 324 320 317 315 313 311 311 308 304 309 314 355 319 286 254 251 239 210 205 195 200
159 156 143 137 132 130 129 123 113 110 101 88 65 53 22 352 339 329 324 324 331 336 328 326 321 318 313 309 306 299 300 304 308 324 307 298 285 268 253 201 191 193 194
143 131 122 137 133 127 124 125 123 113 101 75 39 6 348 342 330 320 315 329 332 335 335 328 322 316 311 306 301 296 296 294 300 291 300 294 287 274 235 197 184 189 191
129 132 137 134 131 132 128 122 112 93 78 52 48 50 45 15 331 321 324 324 326 334 335 331 328 326 317 313 306 297 293 291 293 291 294 283 293 339 160 174 182 186 193
116 111 95 111 142 135 129 119 108 91 73 54 48 50 46 36 34 32 12 347 344 340 338 345 338 344 325 316 315 305 298 284 261 249 274 240 285 76 92 112 158 189 204
92 96 112 115 106 99 103 112 89 70 63 51 47 43 38 31 27 23 17 19 35 33 29 25 28 22 17 18 4 351 336 309 267 225 249 236 238 165 129 161 193 212 217
89 84 61 129 149 129 117 107 83 66 58 51 40 42 36 21 14 18 18 23 22 16 15 16 16 12 15 11 12 6 9 357 315 251 237 227 229 254 255 235 235 228 243
90 66 52 78 175 118 80 73 72 66 52 48 38 33 27 25 23 28 19 23 15 13 9 11 10 14 12 355 357 7 353 357 350 280 254 249 238 256 259 250 220 238 213
115 81 50 73 85 83 78 81 74 65 52 42 41 37 34 34 17 17 9 4 1 5 2 2 5 10 1 353 351 351 347 348 341 323 279 259 247 246 237 254 230 194 188
108 94 75 65 80 76 80 77 92 86 64 54 42 37 37 27 21 14 12 356 0 350 350 355 355 349 355 343 342 336 342 337 326 325 313 298 277 249 229 226 227 208 201
103 91 77 80 82 81 82 92 83 88 77 70 54 44 48 41 31 11 6 0 352 345 353 351 351 350 341 338 330 338 338 333 327 317 307 313 303 254 234 232 214 204 195
114 104 89 70 67 68 59 67 76 82 77 61 52 47 47 49 38 26 11 1 358 350 337 349 343 334 331 331 332 336 326 323 315 303 303 314 314 285 235 226 213 203 196
113 106 95 82 63 66 64 70 80 115 71 52 38 36 41 40 35 27 11 357 342 334 340 348 346 345 353 337 331 320 311 322 322 358 0 357 339 337 223 202 201 86 349
97 80 65 74 67 64 60 60 65 61 44 41 33 30 31 28 22 18 8 351 333 337 339 346 345 340 342 338 319 321 341 357 41 28 31 25 21 36 57 75 71 51 55
105 96 73 55 50 53 59 58 62 60 57 44 40 29 21 17 21 27 3 339 343 352 357 343 325 346 336 341 340 8 28 50 35 34 35 33 42 46 52 87 90 82 79
108 106 101 83 63 63 63 61 68 61 44 36 29 27 21 12 19 16 0 356 350 360 4 356 349 331 313 313 320 28 51 47 48 35 40 29 31 48 52 59 48 66 73
100 97 84 77 40 56 64 77 65 63 24 28 12 17 21 14 11 11 353 13 359 15 357 4 332 348 336 357 1 355 34 54 51 40 30 20 24 19 56 76 68 64 62
114 101 90 83 69 55 63 98 107 109 56 28 337 8 6 10 10 5 4 6 5 7 20 13 18 339 356 14 16 299 14 2 35 38 29 17 11 36 31 45 74 47 55
144 129 119 107 92 77 92 85 68 50 27 12 351 340 342 1 17 14 11 18 10 19 29 9 14 30 21 350 31 40 28 0 345 5 13 24 20 37 22 37 54 74 62
156 130 122 118 109 94 98 91 96 116 113 278 291 295 348 5 15 23 28 37 35 25 43 26 29 29 41 31 357 31 64 32 33 350 354 359 28 25 22 28 46 37 31
142 144 132 125 112 121 110 106 106 96 93 303 351 16 6 359 26 34 37 45 57 38 34 40 36 40 39 55 31 359 16 26 48 64 348 331 354 14 10 12 39 27 9
154 142 138 132 134 124 116 109 117 122 106 62 27 21 357 346 12 20 47 43 60 48 36 28 45 47 52 57 47 44 63 73 14 34 30 318 305 316 322 12 38 22 348